Location: Spaichingen
(48.0400°N, 8.4300°E)
Time: 06:13:19
(UTC+02:00)

ISS - Pass Details

Date: 26 January 2019
Orbit: 411 x 421 km, 51.6° (Epoch: 24 October)

Event Time Altitude Azimuth Distance (km) Brightness Sun altitude
Rises 19:03:41 0° 254° (WSW) 2,410 1.8 -17.8°
Reaches altitude 10° 19:05:48 10° 257° (WSW) 1,546 0.4 -18.2°
Maximum altitude 19:09:16 69° 342° (NNW) 473 -3.6 -18.8°
Enters shadow 19:09:49 56° 36° (NE) 528 -3.6 -18.9°
